User: anonymous   Login
Location: Melbourne
(37.8170°S, 144.9670°E)
Time: 20:01:07
(UTC+11:00)
Language:

Explorer 11/Cluster Stage 4 - Orbit

View from above orbital plane
View from above orbital plane
View from above satellite
View from above satellite

Ground track
Ground track

The orbit data is extracted from the following two-line orbital elements,

1 00107U 61013A   17054.54213247  .00001357  00000-0  16281-3 0  9991
2 00107  28.7884 171.2448 0549510 197.0543 161.0860 14.08204065795033
Epoch (UTC): 23 February 2017 13:00:40
Eccentricity: 0.0549510
inclination: 28.7884°
perigee height: 467 km
apogee height: 1263 km
right ascension of ascending node: 171.2448°
argument of perigee: 197.0543°
revolutions per day: 14.08204065
mean anomaly at epoch: 161.0860°
orbit number at epoch: 79503

The dashed part of the orbit path shows where the satellite is in the earth's shadow,  

DLR